This is the latest recevied weather packets stored in our database for station/object DK9XR-14. If no packets are shown the sender has not sent any weather packets the latest 10 day(s).
| Time | Temp. | Humidity | Pressure | Rain* | Wind** | Luminosity | Snow |
|---|---|---|---|---|---|---|---|
| 1778157133 | 13.33° C | 77% | 1015.7 hPa | 0 mm | - | - | - |
| 1778156831 | 12.78° C | 75% | 1015.7 hPa | 0 mm | - | - | - |
| 1778156532 | 13.33° C | 74% | 1015.7 hPa | 0 mm | - | - | - |
| 1778156230 | 13.33° C | 75% | 1015.7 hPa | 0 mm | - | - | - |
| 1778155927 | 13.33° C | 79% | 1015.7 hPa | 0 mm | - | - | - |
| 1778155625 | 12.78° C | 79% | 1015.7 hPa | 0 mm | - | - | - |
| 1778155326 | 12.22° C | 81% | 1015.7 hPa | 0 mm | - | - | - |
| 1778155026 | 12.22° C | 83% | 1015.7 hPa | 0 mm | - | - | - |
| 1778154725 | 12.22° C | 85% | 1015.7 hPa | 0 mm | - | - | - |
| 1778154425 | 11.67° C | 84% | 1015.8 hPa | 0 mm | - | - | - |
| 1778154125 | 11.11° C | 85% | 1015.8 hPa | 0.25 mm | - | - | - |
| 1778153826 | 11.11° C | 87% | 1015.8 hPa | 0.25 mm | - | - | - |
| 1778153526 | 10.56° C | 87% | 1015.8 hPa | 0.25 mm | - | - | - |
| 1778153227 | 10.56° C | 87% | 1015.8 hPa | 0.25 mm | - | - | - |
| 1778152925 | 10.56° C | 88% | 1015.8 hPa | 0.25 mm | - | - | - |
| 1778152627 | 10.56° C | 88% | 1015.8 hPa | 0.25 mm | - | - | - |
| 1778152325 | 10.56° C | 88% | 1016 hPa | 0.25 mm | - | - | - |
| 1778152025 | 10.56° C | 88% | 1015.9 hPa | 0.25 mm | - | - | - |
| 1778151722 | 10° C | 88% | 1016 hPa | 0.25 mm | - | - | - |
| 1778151423 | 10° C | 87% | 1015.9 hPa | 0.25 mm | - | - | - |
| 1778151123 | 10.56° C | 87% | 1016 hPa | 0.25 mm | - | - | - |
| 1778150823 | 10.56° C | 87% | 1016 hPa | 0.25 mm | - | - | - |
| 1778150522 | 10.56° C | 87% | 1015.9 hPa | 0 mm | - | - | - |
| 1778150223 | 10° C | 86% | 1016 hPa | 0 mm | - | - | - |
| 1778149923 | 10° C | 86% | 1015.9 hPa | 0 mm | - | - | - |
* Rain latest hour (hover to see other rain measurements)
** Current wind speed in m/s (hover to see current wind gust speed)